TimePDT,TemperatureF,Dew PointF,Humidity,Sea Level PressureIn,VisibilityMPH,Wind Direction,Wind SpeedMPH,Gust SpeedMPH,PrecipitationIn,Events,Conditions,WindDirDegrees,DateUTC
12:25 AM,57.2,57.2,100,29.98,10.0,NNE,3.5,-,N/A,,Overcast,30,2013-07-19 07:25:00
12:53 AM,57.0,57.0,100,29.97,10.0,NE,3.5,-,N/A,,Overcast,40,2013-07-19 07:53:00
1:27 AM,57.2,57.2,100,29.97,10.0,Calm,Calm,-,N/A,,Overcast,0,2013-07-19 08:27:00
1:53 AM,57.9,57.9,100,29.96,10.0,NNE,3.5,-,N/A,,Overcast,30,2013-07-19 08:53:00
2:53 AM,57.0,57.0,100,29.94,10.0,NNW,4.6,-,N/A,,Overcast,340,2013-07-19 09:53:00
3:53 AM,57.0,57.0,100,29.94,10.0,NNE,4.6,-,N/A,,Overcast,20,2013-07-19 10:53:00
4:45 AM,57.2,57.2,100,29.95,10.0,SW,8.1,-,N/A,,Overcast,220,2013-07-19 11:45:00
4:53 AM,57.9,57.9,100,29.94,10.0,WSW,8.1,-,N/A,,Overcast,240,2013-07-19 11:53:00
5:53 AM,57.9,57.9,100,29.95,10.0,Calm,Calm,-,N/A,,Overcast,0,2013-07-19 12:53:00
6:10 AM,57.2,57.2,100,29.95,10.0,Variable,3.5,-,N/A,,Overcast,0,2013-07-19 13:10:00
6:53 AM,57.9,57.9,100,29.96,10.0,Variable,4.6,-,N/A,,Overcast,0,2013-07-19 13:53:00
7:53 AM,57.9,57.0,97,29.96,10.0,SW,5.8,-,N/A,,Overcast,230,2013-07-19 14:53:00
8:53 AM,59.0,57.9,96,29.96,10.0,Variable,4.6,-,N/A,,Overcast,0,2013-07-19 15:53:00
9:23 AM,59.0,57.2,94,29.97,10.0,Calm,Calm,-,N/A,,Overcast,0,2013-07-19 16:23:00
9:53 AM,60.1,57.0,90,29.96,10.0,Variable,3.5,-,N/A,,Overcast,0,2013-07-19 16:53:00
10:35 AM,62.6,57.2,82,29.96,10.0,Variable,4.6,-,N/A,,Scattered Clouds,0,2013-07-19 17:35:00
10:53 AM,62.1,57.0,84,29.96,10.0,WSW,4.6,-,N/A,,Partly Cloudy,250,2013-07-19 17:53:00
11:53 AM,66.9,57.0,70,29.95,10.0,WNW,9.2,-,N/A,,Partly Cloudy,300,2013-07-19 18:53:00
12:53 PM,70.0,57.0,63,29.93,10.0,NW,9.2,-,N/A,,Partly Cloudy,310,2013-07-19 19:53:00
1:53 PM,70.0,55.9,61,29.91,10.0,WNW,13.8,-,N/A,,Partly Cloudy,290,2013-07-19 20:53:00
2:53 PM,71.1,55.9,59,29.90,10.0,WNW,16.1,-,N/A,,Partly Cloudy,300,2013-07-19 21:53:00
3:53 PM,70.0,57.9,65,29.88,10.0,WNW,18.4,-,N/A,,Partly Cloudy,290,2013-07-19 22:53:00
4:53 PM,68.0,57.9,70,29.87,10.0,WNW,19.6,-,N/A,,Partly Cloudy,290,2013-07-19 23:53:00
5:53 PM,64.9,59.0,81,29.86,10.0,West,21.9,-,N/A,,Partly Cloudy,280,2013-07-20 00:53:00
6:53 PM,62.1,57.9,86,29.86,10.0,WNW,19.6,-,N/A,,Partly Cloudy,290,2013-07-20 01:53:00
7:53 PM,59.0,57.9,96,29.86,9.0,WNW,16.1,-,N/A,,Partly Cloudy,300,2013-07-20 02:53:00
8:53 PM,57.9,57.9,100,29.88,10.0,WNW,9.2,-,N/A,Fog,Partly Cloudy,290,2013-07-20 03:53:00
9:43 PM,57.2,57.2,100,29.89,9.0,West,8.1,-,N/A,,Scattered Clouds,280,2013-07-20 04:43:00
9:53 PM,57.9,57.9,100,29.90,10.0,West,11.5,-,N/A,,Scattered Clouds,280,2013-07-20 04:53:00
10:09 PM,57.2,57.2,100,29.90,10.0,West,13.8,-,N/A,,Mostly Cloudy,280,2013-07-20 05:09:00
10:53 PM,57.0,57.0,100,29.90,10.0,NNW,5.8,-,N/A,,Mostly Cloudy,340,2013-07-20 05:53:00
11:53 PM,57.0,57.0,100,29.88,10.0,Calm,Calm,-,N/A,,Overcast,0,2013-07-20 06:53:00